Soldotna, AK

10:30 PM AKDT on September 19, 2017 (GMT -0800)
Soldotna

Weather History for PASX - January, 2014

Change the Weather History Date:

Saturday, January 18, 2014

  Actual Average Record
Temperature  
Mean Temperature 32 °F -  
Max Temperature 37 °F 23 °F 43 °F (1980)
Min Temperature 28 °F 8 °F -41 °F (1951)
Degree Days  
Heating Degree Days 32    
Moisture  
Dew Point 29 °F    
Average Humidity 84    
Maximum Humidity 100    
Minimum Humidity 60    
Precipitation  
Precipitation 0.00 in - - ()
Sea Level Pressure  
Sea Level Pressure 29.33 in    
Wind  
Wind Speed 5 mph (South)    
Max Wind Speed 14 mph    
Max Gust Speed 21 mph    
Visibility 10 miles    
Events      
Averages and records for this station are not official NWS values.
T = Trace of Precipitation, MM = Missing Value Source: NWS Daily Summary

Daily Weather History Graph

Daily Weather History Graph

Search for Another Location

Airport or City:

Trip Planner

Search our weather history database for the weather conditions in past years. The results will help you decide how hot, cold, wet, or windy it might be!

Date:

Astronomy

Jan. 18, 2014 Rise Set
Actual Time 9:49 AM AKST 4:40 PM AKST
Civil Twilight 8:56 AM AKST 5:32 PM AKST
Nautical Twilight 8:02 AM AKST 6:27 PM AKST
Astronomical Twilight 7:12 AM AKST 7:17 PM AKST
Moon 8:32 PM AKST (1/18) 9:59 AM AKST (1/18)
Length of Visible Light 8h 36m
Length of Day
6h 50m
Waning Gibbous, 94% of the Moon is Illuminated
Jan 18
Waning Gibbous
Jan 23
Last Quarter
Jan 30
New
Feb 6
First Quarter
Feb 14
Full

Hourly Weather History & Observations

Time (AKST) Temp. Windchill Dew Point Humidity Pressure Visibility Wind Dir Wind Speed Gust Speed Precip Events Conditions
12:16 AM 33.8 °F 28.6 °F 32.0 °F 93% 29.06 in 10.0 mi ESE 5.8 mph - N/A   Partly Cloudy
12:36 AM 35.6 °F - 32.0 °F 87% 29.07 in 10.0 mi Calm Calm - N/A   Clear
12:56 AM 33.8 °F 30.8 °F 30.2 °F 87% 29.07 in 10.0 mi SE 3.5 mph - N/A   Clear
1:16 AM 32.0 °F - 30.2 °F 93% 29.07 in 7.0 mi Calm Calm - N/A   Clear
1:36 AM 30.2 °F 24.3 °F 30.2 °F 100% 29.05 in 3.0 mi East 5.8 mph - N/A   Clear
1:56 AM 30.2 °F 26.7 °F 28.4 °F 93% 29.06 in 10.0 mi East 3.5 mph - N/A   Clear
2:16 AM 28.4 °F 23.3 °F 26.6 °F 93% 29.05 in 5.0 mi ESE 4.6 mph - N/A   Partly Cloudy
2:36 AM 30.2 °F - 28.4 °F 93% 29.06 in 10.0 mi Calm Calm - N/A   Partly Cloudy
2:56 AM 30.2 °F - 30.2 °F 100% 29.05 in 10.0 mi Calm Calm - N/A   Clear
3:16 AM 30.2 °F - 28.4 °F 93% 29.05 in 2.5 mi Calm Calm - N/A   Clear
3:36 AM 30.2 °F - 28.4 °F 93% 29.05 in 9.0 mi Calm Calm - N/A   Mostly Cloudy
3:56 AM 30.2 °F 26.7 °F 28.4 °F 93% 29.06 in 3.0 mi East 3.5 mph - N/A   Mostly Cloudy
4:16 AM 30.2 °F - 30.2 °F 100% 29.05 in 10.0 mi Calm Calm - N/A   Overcast
4:36 AM 30.2 °F - 28.4 °F 93% 29.06 in 10.0 mi Calm Calm - N/A   Mostly Cloudy
4:56 AM 30.2 °F - 30.2 °F 100% 29.06 in 10.0 mi Calm Calm - N/A   Overcast
5:16 AM 30.2 °F 25.4 °F 30.2 °F 100% 29.06 in 10.0 mi East 4.6 mph - N/A   Overcast
5:36 AM 30.2 °F 26.7 °F 28.4 °F 93% 29.06 in 10.0 mi East 3.5 mph - N/A   Overcast
5:56 AM 30.2 °F - 28.4 °F 93% 29.06 in 10.0 mi Calm Calm - N/A   Overcast
6:16 AM 30.2 °F - 30.2 °F 100% 29.07 in 10.0 mi Calm Calm - N/A   Overcast
6:36 AM 30.2 °F - 28.4 °F 93% 29.07 in 10.0 mi Calm Calm - N/A   Overcast
6:56 AM 30.2 °F 26.7 °F 28.4 °F 93% 29.08 in 10.0 mi ENE 3.5 mph - N/A   Overcast
7:16 AM 30.2 °F - 30.2 °F 100% 29.09 in 10.0 mi Calm Calm - N/A   Overcast
7:36 AM 30.2 °F - 28.4 °F 93% 29.11 in 10.0 mi Calm Calm - N/A   Overcast
7:56 AM 30.2 °F - 30.2 °F 100% 29.11 in 10.0 mi Calm Calm - N/A   Overcast
8:16 AM 33.8 °F 30.8 °F 30.2 °F 87% 29.12 in 10.0 mi ENE 3.5 mph - N/A   Overcast
8:36 AM 33.8 °F - 30.2 °F 87% 29.13 in 10.0 mi Calm Calm - N/A   Overcast
8:56 AM 33.8 °F - 32.0 °F 93% 29.15 in 10.0 mi Calm Calm - N/A   Overcast
9:16 AM 33.8 °F - 30.2 °F 87% 29.16 in 10.0 mi Calm Calm - N/A   Overcast
9:36 AM 32.0 °F - 30.2 °F 93% 29.18 in 10.0 mi Calm Calm - N/A   Overcast
9:56 AM 32.0 °F 28.7 °F 30.2 °F 93% 29.20 in 10.0 mi West 3.5 mph - N/A   Overcast
10:16 AM 37.4 °F 30.8 °F 33.8 °F 87% 29.22 in 10.0 mi WSW 9.2 mph - N/A   Overcast
10:36 AM 37.4 °F 32.1 °F 33.8 °F 87% 29.24 in 10.0 mi SSW 6.9 mph - N/A   Overcast
10:56 AM 37.4 °F 31.4 °F 33.8 °F 87% 29.26 in 10.0 mi South 8.1 mph - N/A   Overcast
11:16 AM 37.4 °F 31.4 °F 33.8 °F 87% 29.28 in 10.0 mi South 8.1 mph - N/A   Overcast
11:36 AM 37.4 °F 32.1 °F 33.8 °F 87% 29.29 in 10.0 mi South 6.9 mph - N/A   Overcast
11:56 AM 37.4 °F 30.8 °F 32.0 °F 81% 29.31 in 10.0 mi SSW 9.2 mph 16.1 mph N/A   Overcast
12:16 PM 37.4 °F 30.3 °F 32.0 °F 81% 29.32 in 10.0 mi South 10.4 mph 18.4 mph N/A   Overcast
12:36 PM 37.4 °F 29.8 °F 32.0 °F 81% 29.34 in 10.0 mi South 11.5 mph 20.7 mph N/A   Overcast
12:56 PM 37.4 °F 30.8 °F 32.0 °F 81% 29.35 in 10.0 mi South 9.2 mph - N/A   Overcast
1:16 PM 37.4 °F 30.8 °F 32.0 °F 81% 29.36 in 10.0 mi SSW 9.2 mph - N/A   Overcast
1:36 PM 37.4 °F 30.8 °F 32.0 °F 81% 29.37 in 10.0 mi SSW 9.2 mph - N/A   Overcast
1:56 PM 37.4 °F 29.3 °F 32.0 °F 81% 29.39 in 10.0 mi SSW 12.7 mph 16.1 mph N/A   Mostly Cloudy
2:16 PM 37.4 °F 32.1 °F 30.2 °F 75% 29.41 in 10.0 mi South 6.9 mph 16.1 mph N/A   Scattered Clouds
2:36 PM 35.6 °F 28.6 °F 30.2 °F 81% 29.41 in 10.0 mi SSW 9.2 mph - N/A   Mostly Cloudy
2:56 PM 37.4 °F 29.3 °F 30.2 °F 75% 29.42 in 10.0 mi South 12.7 mph 17.3 mph N/A   Mostly Cloudy
3:16 PM 35.6 °F 27.5 °F 30.2 °F 81% 29.43 in 10.0 mi South 11.5 mph 18.4 mph N/A   Partly Cloudy
3:36 PM 35.6 °F 28.0 °F 30.2 °F 81% 29.45 in 10.0 mi South 10.4 mph - N/A   Scattered Clouds
3:56 PM 35.6 °F 27.5 °F 28.4 °F 75% 29.46 in 10.0 mi South 11.5 mph 18.4 mph N/A   Mostly Cloudy
4:16 PM 35.6 °F 26.6 °F 30.2 °F 81% 29.48 in 10.0 mi South 13.8 mph 17.3 mph N/A   Overcast
4:36 PM 35.6 °F 27.1 °F 30.2 °F 81% 29.49 in 10.0 mi South 12.7 mph 16.1 mph N/A   Mostly Cloudy
4:56 PM 35.6 °F 27.1 °F 28.4 °F 75% 29.51 in 10.0 mi South 12.7 mph 17.3 mph N/A   Partly Cloudy
5:16 PM 33.8 °F 24.8 °F 28.4 °F 81% 29.52 in 10.0 mi SSE 12.7 mph - N/A   Clear
5:36 PM 33.8 °F 27.7 °F 28.4 °F 81% 29.55 in 10.0 mi SSE 6.9 mph - N/A   Mostly Cloudy
5:56 PM 33.8 °F 25.3 °F 28.4 °F 81% 29.56 in 10.0 mi SE 11.5 mph - N/A   Overcast
6:16 PM 33.8 °F 25.3 °F 28.4 °F 81% 29.57 in 10.0 mi SSE 11.5 mph 18.4 mph N/A   Mostly Cloudy
6:36 PM 33.8 °F 26.4 °F 26.6 °F 75% 29.58 in 10.0 mi SE 9.2 mph - N/A   Partly Cloudy
6:56 PM 33.8 °F 27.0 °F 26.6 °F 75% 29.59 in 10.0 mi SE 8.1 mph - N/A   Clear
7:16 PM 33.8 °F 27.7 °F 24.8 °F 70% 29.60 in 10.0 mi SSE 6.9 mph - N/A   Clear
7:36 PM 33.8 °F 28.6 °F 24.8 °F 70% 29.62 in 10.0 mi SSE 5.8 mph - N/A   Clear
7:56 PM 32.0 °F 26.4 °F 24.8 °F 75% 29.63 in 10.0 mi SSE 5.8 mph - N/A   Clear
8:16 PM 33.8 °F 27.7 °F 24.8 °F 70% 29.65 in 10.0 mi SSE 6.9 mph - N/A   Scattered Clouds
8:36 PM 32.0 °F 24.2 °F 24.8 °F 75% 29.66 in 10.0 mi South 9.2 mph - N/A   Scattered Clouds
8:56 PM 33.8 °F 26.4 °F 24.8 °F 70% 29.67 in 10.0 mi South 9.2 mph - N/A   Mostly Cloudy
9:16 PM 33.8 °F 25.3 °F 24.8 °F 70% 29.68 in 10.0 mi South 11.5 mph 17.3 mph N/A   Overcast
9:36 PM 33.8 °F 26.4 °F 24.8 °F 70% 29.70 in 10.0 mi South 9.2 mph - N/A   Mostly Cloudy
9:56 PM 33.8 °F 27.0 °F 24.8 °F 70% 29.71 in 10.0 mi SSW 8.1 mph - N/A   Partly Cloudy
10:16 PM 33.8 °F 25.8 °F 24.8 °F 70% 29.72 in 10.0 mi South 10.4 mph - N/A   Clear
10:36 PM 33.8 °F 27.0 °F 23.0 °F 65% 29.73 in 10.0 mi SSW 8.1 mph - N/A   Clear
10:56 PM 33.8 °F 27.0 °F 23.0 °F 65% 29.74 in 10.0 mi South 8.1 mph - N/A   Clear
11:16 PM 33.8 °F 28.6 °F 21.2 °F 60% 29.75 in 10.0 mi South 5.8 mph - N/A   Clear
11:36 PM 33.8 °F 27.7 °F 21.2 °F 60% 29.76 in 10.0 mi South 6.9 mph - N/A   Clear
11:56 PM 33.8 °F 27.7 °F 21.2 °F 60% 29.76 in 10.0 mi South 6.9 mph - N/A   Clear